カタログに戻る

AE5RC

運用中科学SSO
NORAD 66677·PAYLOAD·🇦🇿 Azerbaijan

打ち上げ Nov 28, 2025 から Vandenberg Space Force Base

Loading…

次のパス (今後24時間)

TLE

最新Source: Space-Track

元期: Sep 14, 2026, 10:54 UTC

1 66677U 25276M   26257.45465576  .00011136  00000-0  45144-3 0  9991
2 66677  97.4104 330.3593 0006107  70.9917 289.1982 15.24793391 44047

AllMySatでAE5RCをリアルタイム追跡

Download on the App Store